11-03-2022, 00:00:02,    134,    1.1,    8.7,   0.00,   0.00, 1006.8,   75.3, -999.0
11-03-2022, 00:00:12,    134,    0.3,    8.8,   0.00,   0.00, 1006.8,   75.3, -999.0
11-03-2022, 00:00:22,    134,    0.0,    8.6,   0.00,   0.00, 1006.7,   75.2, -999.0
11-03-2022, 00:00:32,    107,    0.6,    8.8,   0.00,   0.00, 1006.8,   75.2, -999.0
11-03-2022, 00:00:42,    117,    1.4,    8.8,   0.00,   0.00, 1006.8,   75.2, -999.0
11-03-2022, 00:00:52,    158,    1.1,    8.8,   0.00,   0.00, 1006.8,   75.2, -999.0
11-03-2022, 00:01:02,    146,    0.4,    8.7,   0.00,   0.00, 1006.8,   75.1, -999.0
11-03-2022, 00:01:12,    134,    1.1,    8.7,   0.00,   0.00, 1006.8,   75.0, -999.0
11-03-2022, 00:01:22,    106,    0.8,    8.7,   0.00,   0.00, 1006.8,   75.0, -999.0
11-03-2022, 00:01:32,    109,    1.6,    8.7,   0.00,   0.00, 1006.8,   75.1, -999.0
11-03-2022, 00:01:41,    115,    1.0,    8.7,   0.00,   0.00, 1006.8,   75.2, -999.0
11-03-2022, 00:01:52,    121,    0.3,    8.7,   0.00,   0.00, 1006.8,   75.3, -999.0
11-03-2022, 00:02:01,    121,    0.4,    8.7,   0.00,   0.00, 1006.8,   75.3, -999.0
11-03-2022, 00:02:11,    119,    0.6,    8.7,   0.00,   0.00, 1006.8,   75.2, -999.0
11-03-2022, 00:02:22,    117,    0.7,    8.7,   0.00,   0.00, 1006.8,   75.2, -999.0
11-03-2022, 00:02:31,    117,    0.0,    8.6,   0.00,   0.00, 1006.7,   74.9, -999.0
11-03-2022, 00:02:41,    124,    0.4,    8.7,   0.00,   0.00, 1006.8,   75.3, -999.0
11-03-2022, 00:02:51,    121,    0.7,    8.7,   0.00,   0.00, 1006.8,   75.3, -999.0
11-03-2022, 00:03:01,    121,    0.5,    8.7,   0.00,   0.00, 1006.8,   75.4, -999.0
11-03-2022, 00:03:11,    151,    0.9,    8.7,   0.00,   0.00, 1006.8,   75.3, -999.0
11-03-2022, 00:03:21,    151,    0.8,    8.7,   0.00,   0.00, 1006.8,   75.3, -999.0
11-03-2022, 00:03:31,    149,    0.2,    8.7,   0.00,   0.00, 1006.8,   75.3, -999.0
11-03-2022, 00:03:41,    149,    0.3,    8.8,   0.00,   0.00, 1006.8,   75.4, -999.0
11-03-2022, 00:03:51,    148,    0.9,    8.8,   0.00,   0.00, 1006.8,   75.5, -999.0
11-03-2022, 00:04:01,    148,    0.8,    8.7,   0.00,   0.00, 1006.8,   75.3, -999.0
11-03-2022, 00:04:11,    147,    0.8,    8.6,   0.00,   0.00, 1006.8,   75.2, -999.0
11-03-2022, 00:04:21,    156,    1.5,    8.6,   0.00,   0.00, 1006.8,   75.2, -999.0
11-03-2022, 00:04:31,     98,    1.7,    8.6,   0.00,   0.00, 1006.8,   75.2, -999.0
11-03-2022, 00:04:41,    131,    1.3,    8.5,   0.00,   0.00, 1006.8,   75.3, -999.0
11-03-2022, 00:04:51,    131,    1.1,    8.6,   0.00,   0.00, 1006.8,   75.4, -999.0
11-03-2022, 00:05:01,    131,    1.0,    8.5,   0.00,   0.00, 1006.8,   75.4, -999.0
11-03-2022, 00:05:10,    137,    0.9,    8.6,   0.00,   0.00, 1006.8,   75.6, -999.0
11-03-2022, 00:05:20,    140,    1.2,    8.6,   0.00,   0.00, 1006.8,   75.4, -999.0
11-03-2022, 00:05:31,    142,    1.3,    8.6,   0.00,   0.00, 1006.8,   75.5, -999.0
11-03-2022, 00:05:40,    100,    2.5,    8.7,   0.00,   0.00, 1006.8,   75.6, -999.0
11-03-2022, 00:05:50,    109,    1.8,    8.7,   0.00,   0.00, 1006.8,   75.5, -999.0
11-03-2022, 00:06:00,    110,    2.3,    8.7,   0.00,   0.00, 1006.8,   75.5, -999.0
11-03-2022, 00:06:10,    141,    0.9,    8.7,   0.00,   0.00, 1006.8,   75.5, -999.0
11-03-2022, 00:06:20,    132,    1.7,    8.7,   0.00,   0.00, 1006.8,   75.6, -999.0
11-03-2022, 00:06:30,    133,    1.1,    8.7,   0.00,   0.00, 1006.8,   75.4, -999.0
11-03-2022, 00:06:40,    112,    0.1,    8.6,   0.00,   0.00, 1006.7,   75.0, -999.0
11-03-2022, 00:06:50,    115,    0.5,    8.6,   0.00,   0.00, 1006.8,   75.3, -999.0
11-03-2022, 00:07:00,    117,    0.4,    8.7,   0.00,   0.00, 1006.8,   75.5, -999.0
11-03-2022, 00:07:10,    117,    0.3,    8.7,   0.00,   0.00, 1006.7,   75.3, -999.0
11-03-2022, 00:07:20,    115,    0.3,    8.7,   0.00,   0.00, 1006.8,   75.5, -999.0
11-03-2022, 00:07:30,    115,    0.4,    8.7,   0.00,   0.00, 1006.8,   75.6, -999.0
11-03-2022, 00:07:40,    115,    0.0,    8.7,   0.00,   0.00, 1006.7,   75.4, -999.0
11-03-2022, 00:07:50,    115,    0.0,    8.7,   0.00,   0.00, 1006.6,   75.3, -999.0
11-03-2022, 00:08:00,    115,    0.2,    8.7,   0.00,   0.00, 1006.8,   75.5, -999.0
11-03-2022, 00:08:10,    123,    0.1,    8.7,   0.00,   0.00, 1006.7,   75.3, -999.0
11-03-2022, 00:08:19,    147,    1.1,    8.8,   0.00,   0.00, 1006.8,   75.5, -999.0
11-03-2022, 00:08:29,    149,    1.5,    8.8,   0.00,   0.00, 1006.7,   75.3, -999.0
11-03-2022, 00:08:40,    148,    0.6,    8.7,   0.00,   0.00, 1006.8,   75.3, -999.0
11-03-2022, 00:08:49,    119,    1.1,    8.7,   0.00,   0.00, 1006.8,   75.3, -999.0
11-03-2022, 00:08:59,    104,    1.2,    8.8,   0.00,   0.00, 1006.8,   75.4, -999.0
11-03-2022, 00:09:10,    115,    1.1,    8.7,   0.00,   0.00, 1006.8,   75.6, -999.0
11-03-2022, 00:09:19,    115,    0.3,    8.7,   0.00,   0.00, 1006.7,   75.4, -999.0
11-03-2022, 00:09:29,    115,    0.1,    8.7,   0.00,   0.00, 1006.7,   75.3, -999.0
11-03-2022, 00:09:39,    115,    0.0,    8.7,   0.00,   0.00, 1006.6,   75.2, -999.0
11-03-2022, 00:09:49,    121,    0.5,    8.7,   0.00,   0.00, 1006.8,   75.5, -999.0
11-03-2022, 00:09:59,    122,    0.6,    8.7,   0.00,   0.00, 1006.8,   75.2, -999.0
11-03-2022, 00:10:09,    122,    0.0,    8.6,   0.00,   0.00, 1006.7,   75.0, -999.0
11-03-2022, 00:10:19,    122,    0.1,    8.7,   0.00,   0.00, 1006.7,   75.0, -999.0
11-03-2022, 00:10:29,    121,    1.0,    8.7,   0.00,   0.00, 1006.8,   75.3, -999.0
11-03-2022, 00:10:39,    118,    1.8,    8.7,   0.00,   0.00, 1006.8,   75.4, -999.0
11-03-2022, 00:10:49,    106,    1.2,    8.7,   0.00,   0.00, 1006.8,   75.4, -999.0
11-03-2022, 00:10:59,    125,    2.8,    8.7,   0.00,   0.00, 1006.8,   75.4, -999.0
11-03-2022, 00:11:09,    150,    0.4,    8.6,   0.00,   0.00, 1006.8,   75.2, -999.0
11-03-2022, 00:11:19,    150,    0.8,    8.7,   0.00,   0.00, 1006.8,   75.4, -999.0
11-03-2022, 00:11:28,    149,    0.3,    8.7,   0.00,   0.00, 1006.8,   75.3, -999.0
11-03-2022, 00:11:39,    150,    0.2,    8.6,   0.00,   0.00, 1006.7,   75.2, -999.0
11-03-2022, 00:11:49,    105,    1.0,    8.6,   0.00,   0.00, 1006.8,   75.3, -999.0
11-03-2022, 00:11:58,    114,    1.9,    8.7,   0.00,   0.00, 1006.8,   75.4, -999.0
11-03-2022, 00:12:08,    115,    1.4,    8.7,   0.00,   0.00, 1006.8,   75.6, -999.0
11-03-2022, 00:12:18,    106,    2.1,    8.6,   0.00,   0.00, 1006.8,   75.6, -999.0
11-03-2022, 00:12:28,    151,    2.2,    8.6,   0.00,   0.00, 1006.8,   75.6, -999.0
11-03-2022, 00:12:38,     95,    0.8,    8.7,   0.00,   0.00, 1006.7,   75.7, -999.0
11-03-2022, 00:12:48,    117,    1.4,    8.7,   0.00,   0.00, 1006.7,   75.5, -999.0
11-03-2022, 00:12:58,    122,    1.6,    8.7,   0.00,   0.00, 1006.7,   75.5, -999.0
11-03-2022, 00:13:08,    123,    0.5,    8.7,   0.00,   0.00, 1006.7,   75.5, -999.0
11-03-2022, 00:13:18,    124,    0.5,    8.7,   0.00,   0.00, 1006.7,   75.5, -999.0
11-03-2022, 00:13:28,    126,    0.0,    8.7,   0.00,   0.00, 1006.7,   75.5, -999.0
11-03-2022, 00:13:38,    124,    0.6,    8.7,   0.00,   0.00, 1006.7,   75.5, -999.0
11-03-2022, 00:13:48,    124,    0.2,    8.6,   0.00,   0.00, 1006.7,   75.3, -999.0
11-03-2022, 00:13:58,    153,    0.2,    8.7,   0.00,   0.00, 1006.7,   75.5, -999.0
11-03-2022, 00:14:08,    153,    0.0,    8.6,   0.00,   0.00, 1006.6,   75.3, -999.0
11-03-2022, 00:14:18,    153,    0.1,    8.6,   0.00,   0.00, 1006.7,   75.3, -999.0
11-03-2022, 00:14:28,    149,    0.6,    8.6,   0.00,   0.00, 1006.7,   75.4, -999.0
11-03-2022, 00:14:37,    149,    0.1,    8.6,   0.00,   0.00, 1006.7,   75.3, -999.0
11-03-2022, 00:14:48,    147,    0.5,    8.7,   0.00,   0.00, 1006.7,   75.6, -999.0
11-03-2022, 00:14:58,    130,    0.7,    8.7,   0.00,   0.00, 1006.7,   75.6, -999.0
11-03-2022, 00:15:07,    114,    1.7,    8.8,   0.00,   0.00, 1006.8,   75.6, -999.0
11-03-2022, 00:15:18,    121,    3.1,    8.7,   0.00,   0.00, 1006.8,   75.6, -999.0
11-03-2022, 00:15:27,    132,    2.4,    8.6,   0.00,   0.00, 1006.8,   75.5, -999.0
11-03-2022, 00:15:37,    158,    2.7,    8.5,   0.00,   0.00, 1006.7,   75.3, -999.0
11-03-2022, 00:15:47,    144,    1.3,    8.6,   0.00,   0.00, 1006.8,   75.4, -999.0
11-03-2022, 00:15:57,    144,    0.6,    8.6,   0.00,   0.00, 1006.7,   75.3, -999.0
11-03-2022, 00:16:07,    143,    0.0,    8.4,   0.00,   0.00, 1006.6,   75.1, -999.0
11-03-2022, 00:16:17,    125,    1.1,    8.5,   0.00,   0.00, 1006.7,   75.5, -999.0
11-03-2022, 00:16:27,    124,    1.1,    8.6,   0.00,   0.00, 1006.7,   75.8, -999.0
11-03-2022, 00:16:37,    120,    1.6,    8.6,   0.00,   0.00, 1006.7,   75.9, -999.0
11-03-2022, 00:16:47,    124,    0.7,    8.6,   0.00,   0.00, 1006.7,   76.0, -999.0
11-03-2022, 00:16:57,    128,    0.5,    8.6,   0.00,   0.00, 1006.7,   75.9, -999.0
11-03-2022, 00:17:07,    179,    1.3,    8.6,   0.00,   0.00, 1006.7,   75.9, -999.0
11-03-2022, 00:17:17,    126,    1.2,    8.5,   0.00,   0.00, 1006.7,   75.8, -999.0
11-03-2022, 00:17:27,    125,    2.0,    8.6,   0.00,   0.00, 1006.7,   75.8, -999.0
11-03-2022, 00:17:37,    126,    3.5,    8.5,   0.00,   0.00, 1006.7,   76.0, -999.0
11-03-2022, 00:17:47,    130,    1.9,    8.5,   0.00,   0.00, 1006.7,   76.0, -999.0
11-03-2022, 00:17:57,    122,    2.0,    8.6,   0.00,   0.00, 1006.7,   76.0, -999.0
11-03-2022, 00:18:07,    123,    1.4,    8.5,   0.00,   0.00, 1006.7,   76.0, -999.0
11-03-2022, 00:18:16,    124,    0.4,    8.5,   0.00,   0.00, 1006.7,   75.9, -999.0
11-03-2022, 00:18:27,    127,    0.4,    8.5,   0.00,   0.00, 1006.7,   76.0, -999.0
11-03-2022, 00:18:36,    127,    0.0,    8.4,   0.00,   0.00, 1006.6,   75.7, -999.0
11-03-2022, 00:18:46,    127,    0.0,    8.4,   0.00,   0.00, 1006.6,   75.8, -999.0
11-03-2022, 00:18:56,    126,    0.0,    8.4,   0.00,   0.00, 1006.6,   75.8, -999.0
11-03-2022, 00:19:06,    127,    0.3,    8.4,   0.00,   0.00, 1006.6,   76.0, -999.0
11-03-2022, 00:19:16,    132,    0.3,    8.5,   0.00,   0.00, 1006.6,   76.1, -999.0
11-03-2022, 00:19:26,    132,    0.0,    8.4,   0.00,   0.00, 1006.5,   75.8, -999.0
11-03-2022, 00:19:36,    146,    0.4,    8.5,   0.00,   0.00, 1006.6,   76.0, -999.0
11-03-2022, 00:19:46,    195,    0.2,    8.4,   0.00,   0.00, 1006.6,   75.9, -999.0
11-03-2022, 00:19:56,    194,    0.0,    8.4,   0.00,   0.00, 1006.6,   76.0, -999.0
11-03-2022, 00:20:06,    118,    0.8,    8.4,   0.00,   0.00, 1006.7,   76.2, -999.0
11-03-2022, 00:20:16,    163,    1.0,    8.5,   0.00,   0.00, 1006.7,   76.3, -999.0
11-03-2022, 00:20:26,    163,    0.3,    8.5,   0.00,   0.00, 1006.6,   76.3, -999.0
11-03-2022, 00:20:36,    163,    0.2,    8.5,   0.00,   0.00, 1006.7,   76.2, -999.0
11-03-2022, 00:20:46,    135,    0.6,    8.4,   0.00,   0.00, 1006.6,   76.1, -999.0
11-03-2022, 00:20:56,    117,    2.3,    8.5,   0.00,   0.00, 1006.7,   76.4, -999.0
11-03-2022, 00:21:06,    127,    0.9,    8.5,   0.00,   0.00, 1006.7,   76.3, -999.0
11-03-2022, 00:21:15,     88,    1.4,    8.5,   0.00,   0.00, 1006.7,   76.3, -999.0
11-03-2022, 00:21:26,    129,    0.8,    8.5,   0.00,   0.00, 1006.7,   76.4, -999.0
11-03-2022, 00:21:36,    136,    0.2,    8.5,   0.00,   0.00, 1006.6,   76.1, -999.0
11-03-2022, 00:21:45,    136,    0.2,    8.4,   0.00,   0.00, 1006.6,   76.1, -999.0
11-03-2022, 00:21:55,    173,    1.0,    8.4,   0.00,   0.00, 1006.7,   76.2, -999.0
11-03-2022, 00:22:06,    130,    1.0,    8.4,   0.00,   0.00, 1006.7,   76.3, -999.0
11-03-2022, 00:22:15,    130,    0.5,    8.4,   0.00,   0.00, 1006.7,   76.3, -999.0
11-03-2022, 00:22:25,    129,    0.5,    8.4,   0.00,   0.00, 1006.7,   76.3, -999.0
11-03-2022, 00:22:35,    129,    0.1,    8.4,   0.00,   0.00, 1006.6,   76.3, -999.0
11-03-2022, 00:22:45,    127,    1.3,    8.4,   0.00,   0.00, 1006.7,   76.5, -999.0
11-03-2022, 00:22:55,    123,    1.7,    8.5,   0.00,   0.00, 1006.7,   76.5, -999.0
11-03-2022, 00:23:05,    128,    0.4,    8.4,   0.00,   0.00, 1006.6,   76.5, -999.0
11-03-2022, 00:23:15,    126,    0.4,    8.4,   0.00,   0.00, 1006.6,   76.5, -999.0
11-03-2022, 00:23:25,    126,    0.9,    8.5,   0.00,   0.00, 1006.7,   76.6, -999.0
11-03-2022, 00:23:35,    126,    0.1,    8.5,   0.00,   0.00, 1006.6,   76.4, -999.0
11-03-2022, 00:23:45,    126,    0.0,    8.4,   0.00,   0.00, 1006.5,   76.2, -999.0
11-03-2022, 00:23:55,    126,    0.3,    8.4,   0.00,   0.00, 1006.6,   76.4, -999.0
11-03-2022, 00:24:05,    132,    0.5,    8.5,   0.00,   0.00, 1006.7,   76.5, -999.0
11-03-2022, 00:24:15,    152,    1.4,    8.5,   0.00,   0.00, 1006.7,   76.5, -999.0
11-03-2022, 00:24:24,    112,    1.5,    8.5,   0.00,   0.00, 1006.7,   76.6, -999.0
11-03-2022, 00:24:35,    115,    0.9,    8.4,   0.00,   0.00, 1006.6,   76.5, -999.0
11-03-2022, 00:24:45,    111,    1.6,    8.6,   0.00,   0.00, 1006.7,   76.7, -999.0
11-03-2022, 00:24:54,    141,    2.1,    8.7,   0.00,   0.00, 1006.7,   76.7, -999.0
11-03-2022, 00:25:04,    127,    4.0,    8.6,   0.00,   0.00, 1006.7,   76.9, -999.0
11-03-2022, 00:25:15,    122,    3.0,    8.5,   0.00,   0.00, 1006.7,   76.7, -999.0
11-03-2022, 00:25:24,     98,    2.0,    8.5,   0.00,   0.00, 1006.6,   76.5, -999.0
11-03-2022, 00:25:34,    129,    2.3,    8.5,   0.00,   0.00, 1006.7,   76.4, -999.0
11-03-2022, 00:25:45,    125,    1.0,    8.5,   0.00,   0.00, 1006.6,   76.6, -999.0
11-03-2022, 00:25:54,    119,    0.2,    8.5,   0.00,   0.00, 1006.6,   76.5, -999.0
11-03-2022, 00:26:04,    174,    1.3,    8.6,   0.00,   0.00, 1006.6,   76.7, -999.0
11-03-2022, 00:26:14,    119,    0.7,    8.7,   0.00,   0.00, 1006.6,   76.7, -999.0
11-03-2022, 00:26:24,    131,    1.4,    8.6,   0.00,   0.00, 1006.6,   76.7, -999.0
11-03-2022, 00:26:34,    145,    1.1,    8.6,   0.00,   0.00, 1006.6,   76.5, -999.0
11-03-2022, 00:26:44,    147,    0.8,    8.4,   0.00,   0.00, 1006.6,   76.6, -999.0
11-03-2022, 00:26:54,    139,    1.4,    8.4,   0.00,   0.00, 1006.6,   76.4, -999.0
11-03-2022, 00:27:04,    136,    0.5,    8.4,   0.00,   0.00, 1006.6,   76.5, -999.0
11-03-2022, 00:27:14,    112,    0.9,    8.4,   0.00,   0.00, 1006.6,   76.5, -999.0
11-03-2022, 00:27:24,    139,    0.7,    8.4,   0.00,   0.00, 1006.6,   76.6, -999.0
11-03-2022, 00:27:34,    140,    0.7,    8.4,   0.00,   0.00, 1006.6,   76.7, -999.0
11-03-2022, 00:27:44,    139,    0.2,    8.4,   0.00,   0.00, 1006.6,   76.5, -999.0
11-03-2022, 00:27:54,    124,    1.1,    8.4,   0.00,   0.00, 1006.6,   76.7, -999.0
11-03-2022, 00:28:03,    117,    1.3,    8.5,   0.00,   0.00, 1006.6,   76.9, -999.0
11-03-2022, 00:28:14,    116,    0.6,    8.5,   0.00,   0.00, 1006.6,   76.9, -999.0
11-03-2022, 00:28:24,    116,    0.0,    8.4,   0.00,   0.00, 1006.5,   76.5, -999.0
11-03-2022, 00:28:33,    134,    0.3,    8.4,   0.00,   0.00, 1006.5,   76.6, -999.0
11-03-2022, 00:28:43,    128,    1.4,    8.5,   0.00,   0.00, 1006.6,   76.7, -999.0
11-03-2022, 00:28:53,    127,    1.5,    8.5,   0.00,   0.00, 1006.6,   76.7, -999.0
11-03-2022, 00:29:03,    126,    2.4,    8.4,   0.00,   0.00, 1006.6,   76.6, -999.0
11-03-2022, 00:29:13,    124,    1.8,    8.4,   0.00,   0.00, 1006.6,   76.6, -999.0
11-03-2022, 00:29:23,    103,    2.2,    8.4,   0.00,   0.00, 1006.6,   76.7, -999.0
11-03-2022, 00:29:33,    104,    2.0,    8.5,   0.00,   0.00, 1006.6,   76.9, -999.0
11-03-2022, 00:29:43,    147,    3.2,    8.5,   0.00,   0.00, 1006.6,   77.0, -999.0
11-03-2022, 00:29:53,    146,    1.0,    8.5,   0.00,   0.00, 1006.6,   76.9, -999.0
11-03-2022, 00:30:03,    146,    0.4,    8.5,   0.00,   0.00, 1006.6,   76.8, -999.0
11-03-2022, 00:30:13,    139,    0.7,    8.5,   0.00,   0.00, 1006.6,   76.7, -999.0
11-03-2022, 00:30:23,    125,    3.1,    8.5,   0.00,   0.00, 1006.6,   76.8, -999.0
11-03-2022, 00:30:33,    107,    3.0,    8.5,   0.00,   0.00, 1006.6,   76.8, -999.0
11-03-2022, 00:30:43,    118,    1.2,    8.5,   0.00,   0.00, 1006.6,   76.8, -999.0
11-03-2022, 00:30:53,    130,    1.5,    8.5,   0.00,   0.00, 1006.6,   76.8, -999.0
11-03-2022, 00:31:03,    107,    1.6,    8.6,   0.00,   0.00, 1006.5,   76.9, -999.0
11-03-2022, 00:31:12,    106,    1.1,    8.6,   0.00,   0.00, 1006.5,   76.9, -999.0
11-03-2022, 00:31:23,    107,    0.3,    8.5,   0.00,   0.00, 1006.5,   76.8, -999.0
11-03-2022, 00:31:33,    112,    0.4,    8.6,   0.00,   0.00, 1006.5,   76.9, -999.0
11-03-2022, 00:31:42,    111,    0.0,    8.6,   0.00,   0.00, 1006.4,   76.5, -999.0
11-03-2022, 00:31:53,    111,    0.0,    8.5,   0.00,   0.00, 1006.4,   76.6, -999.0
11-03-2022, 00:32:02,    112,    0.0,    8.7,   0.00,   0.00, 1006.4,   76.5, -999.0
11-03-2022, 00:32:12,    112,    0.1,    8.6,   0.00,   0.00, 1006.4,   76.5, -999.0
11-03-2022, 00:32:22,    111,    0.3,    8.6,   0.00,   0.00, 1006.4,   76.6, -999.0
11-03-2022, 00:32:32,    111,    0.3,    8.6,   0.00,   0.00, 1006.5,   76.8, -999.0
11-03-2022, 00:32:42,    111,    0.0,    8.6,   0.00,   0.00, 1006.4,   76.4, -999.0
11-03-2022, 00:32:52,    111,    0.2,    8.6,   0.00,   0.00, 1006.4,   76.5, -999.0
11-03-2022, 00:33:02,    114,    0.5,    8.7,   0.00,   0.00, 1006.5,   76.7, -999.0
11-03-2022, 00:33:12,    115,    0.5,    8.7,   0.00,   0.00, 1006.5,   76.8, -999.0
11-03-2022, 00:33:22,    135,    1.2,    8.7,   0.00,   0.00, 1006.5,   76.6, -999.0
11-03-2022, 00:33:32,    118,    1.3,    8.7,   0.00,   0.00, 1006.5,   76.5, -999.0
11-03-2022, 00:33:42,     99,    3.0,    8.6,   0.00,   0.00, 1006.5,   76.5, -999.0
11-03-2022, 00:33:52,    125,    3.3,    8.6,   0.00,   0.00, 1006.5,   76.4, -999.0
11-03-2022, 00:34:02,    137,    2.0,    8.6,   0.00,   0.00, 1006.5,   76.3, -999.0
11-03-2022, 00:34:12,    136,    0.7,    8.5,   0.00,   0.00, 1006.5,   76.2, -999.0
11-03-2022, 00:34:22,    138,    0.1,    8.6,   0.00,   0.00, 1006.4,   76.2, -999.0
11-03-2022, 00:34:32,    144,    0.0,    8.4,   0.00,   0.00, 1006.4,   76.0, -999.0
11-03-2022, 00:34:42,    132,    0.6,    8.5,   0.00,   0.00, 1006.4,   76.3, -999.0
11-03-2022, 00:34:51,    127,    2.5,    8.5,   0.00,   0.00, 1006.5,   76.4, -999.0
11-03-2022, 00:35:02,    118,    1.7,    8.4,   0.00,   0.00, 1006.5,   76.4, -999.0
11-03-2022, 00:35:11,    126,    1.5,    8.4,   0.00,   0.00, 1006.4,   76.4, -999.0
11-03-2022, 00:35:21,    128,    0.9,    8.5,   0.00,   0.00, 1006.5,   76.6, -999.0
11-03-2022, 00:35:31,    127,    0.6,    8.5,   0.00,   0.00, 1006.4,   76.6, -999.0
11-03-2022, 00:35:41,    114,    2.8,    8.6,   0.00,   0.00, 1006.5,   76.7, -999.0
11-03-2022, 00:35:51,    140,    3.1,    8.6,   0.00,   0.00, 1006.5,   76.8, -999.0
11-03-2022, 00:36:01,    128,    3.4,    8.5,   0.00,   0.00, 1006.5,   76.8, -999.0
11-03-2022, 00:36:11,    109,    2.9,    8.5,   0.00,   0.00, 1006.4,   76.6, -999.0
11-03-2022, 00:36:21,    121,    1.7,    8.4,   0.00,   0.00, 1006.4,   76.5, -999.0
11-03-2022, 00:36:31,    126,    1.8,    8.5,   0.00,   0.00, 1006.4,   76.5, -999.0
11-03-2022, 00:36:41,     93,    2.4,    8.4,   0.00,   0.00, 1006.4,   76.6, -999.0
11-03-2022, 00:36:51,    128,    1.6,    8.5,   0.00,   0.00, 1006.4,   76.7, -999.0
11-03-2022, 00:37:01,    131,    1.7,    8.4,   0.00,   0.00, 1006.4,   76.7, -999.0
11-03-2022, 00:37:11,    136,    1.6,    8.4,   0.00,   0.00, 1006.4,   76.7, -999.0
11-03-2022, 00:37:21,    135,    1.6,    8.4,   0.00,   0.00, 1006.4,   76.6, -999.0
11-03-2022, 00:37:31,    143,    0.7,    8.4,   0.00,   0.00, 1006.4,   76.6, -999.0
11-03-2022, 00:37:41,    135,    1.4,    8.4,   0.00,   0.00, 1006.4,   76.7, -999.0
11-03-2022, 00:37:51,     91,    1.5,    8.4,   0.00,   0.00, 1006.4,   76.8, -999.0
11-03-2022, 00:38:00,    125,    3.3,    8.5,   0.00,   0.00, 1006.4,   77.1, -999.0
11-03-2022, 00:38:11,    123,    2.4,    8.5,   0.00,   0.00, 1006.4,   77.1, -999.0
11-03-2022, 00:38:20,    134,    2.8,    8.5,   0.00,   0.00, 1006.4,   76.9, -999.0
11-03-2022, 00:38:30,    107,    2.7,    8.5,   0.00,   0.00, 1006.4,   76.9, -999.0
11-03-2022, 00:38:41,    106,    1.2,    8.5,   0.00,   0.00, 1006.4,   76.9, -999.0
11-03-2022, 00:38:50,    101,    4.1,    8.4,   0.00,   0.00, 1006.4,   77.0, -999.0
11-03-2022, 00:39:00,    132,    3.0,    8.4,   0.00,   0.00, 1006.4,   77.0, -999.0
11-03-2022, 00:39:10,    119,    2.2,    8.4,   0.00,   0.00, 1006.3,   77.1, -999.0
11-03-2022, 00:39:20,     99,    2.8,    8.4,   0.00,   0.00, 1006.4,   76.9, -999.0
11-03-2022, 00:39:30,    107,    2.0,    8.4,   0.00,   0.00, 1006.3,   77.0, -999.0
11-03-2022, 00:39:40,    109,    0.8,    8.4,   0.00,   0.00, 1006.3,   77.0, -999.0
11-03-2022, 00:39:50,    124,    1.8,    8.5,   0.00,   0.00, 1006.3,   77.0, -999.0
11-03-2022, 00:40:00,    129,    1.9,    8.5,   0.00,   0.00, 1006.3,   77.0, -999.0
11-03-2022, 00:40:10,    114,    2.6,    8.3,   0.00,   0.00, 1006.3,   77.0, -999.0
11-03-2022, 00:40:20,    130,    1.8,    8.5,   0.00,   0.00, 1006.3,   77.0, -999.0
11-03-2022, 00:40:30,    131,    0.8,    8.5,   0.00,   0.00, 1006.3,   77.0, -999.0
11-03-2022, 00:40:40,    133,    0.2,    8.4,   0.00,   0.00, 1006.2,   76.9, -999.0
11-03-2022, 00:40:50,    132,    1.2,    8.4,   0.00,   0.00, 1006.3,   76.9, -999.0
11-03-2022, 00:40:59,     95,    1.6,    8.4,   0.00,   0.00, 1006.3,   77.1, -999.0
11-03-2022, 00:41:10,    105,    1.8,    8.3,   0.00,   0.00, 1006.3,   77.1, -999.0
11-03-2022, 00:41:20,    115,    1.7,    8.4,   0.00,   0.00, 1006.3,   77.1, -999.0
11-03-2022, 00:41:29,    123,    1.7,    8.4,   0.00,   0.00, 1006.3,   77.3, -999.0
11-03-2022, 00:41:39,    127,    2.1,    8.4,   0.00,   0.00, 1006.3,   77.3, -999.0
11-03-2022, 00:41:50,    112,    1.6,    8.5,   0.00,   0.00, 1006.3,   77.2, -999.0
11-03-2022, 00:41:59,    118,    2.9,    8.4,   0.00,   0.00, 1006.3,   77.2, -999.0
11-03-2022, 00:42:09,    158,    2.6,    8.4,   0.00,   0.00, 1006.3,   77.2, -999.0
11-03-2022, 00:42:19,    158,    1.0,    8.5,   0.00,   0.00, 1006.3,   77.3, -999.0
11-03-2022, 00:42:29,    118,    1.0,    8.4,   0.00,   0.00, 1006.3,   77.2, -999.0
11-03-2022, 00:42:39,    121,    2.2,    8.4,   0.00,   0.00, 1006.3,   77.4, -999.0
11-03-2022, 00:42:49,    107,    2.0,    8.4,   0.00,   0.00, 1006.3,   77.2, -999.0
11-03-2022, 00:42:59,     99,    1.9,    8.4,   0.00,   0.00, 1006.2,   77.3, -999.0
11-03-2022, 00:43:09,    115,    2.3,    8.4,   0.00,   0.00, 1006.3,   77.3, -999.0
11-03-2022, 00:43:19,    123,    1.0,    8.4,   0.00,   0.00, 1006.3,   77.4, -999.0
11-03-2022, 00:43:29,    123,    1.1,    8.5,   0.00,   0.00, 1006.3,   77.3, -999.0
11-03-2022, 00:43:39,    133,    0.4,    8.4,   0.00,   0.00, 1006.3,   77.3, -999.0
11-03-2022, 00:43:49,    134,    0.0,    8.3,   0.00,   0.00, 1006.1,   76.9, -999.0
11-03-2022, 00:43:59,    116,    0.7,    8.3,   0.00,   0.00, 1006.2,   77.1, -999.0
11-03-2022, 00:44:08,    140,    1.5,    8.4,   0.00,   0.00, 1006.3,   77.1, -999.0
11-03-2022, 00:44:19,    139,    0.4,    8.4,   0.00,   0.00, 1006.2,   77.1, -999.0
11-03-2022, 00:44:29,    108,    1.2,    8.3,   0.00,   0.00, 1006.2,   77.0, -999.0
11-03-2022, 00:44:38,    125,    2.1,    8.4,   0.00,   0.00, 1006.3,   77.3, -999.0
11-03-2022, 00:44:48,    126,    0.4,    8.3,   0.00,   0.00, 1006.2,   77.0, -999.0
11-03-2022, 00:44:59,    128,    0.1,    8.3,   0.00,   0.00, 1006.2,   77.0, -999.0
11-03-2022, 00:45:08,    116,    1.0,    8.3,   0.00,   0.00, 1006.3,   77.1, -999.0
11-03-2022, 00:45:18,    115,    2.0,    8.4,   0.00,   0.00, 1006.3,   77.2, -999.0
11-03-2022, 00:45:28,    118,    0.5,    8.4,   0.00,   0.00, 1006.3,   77.4, -999.0
11-03-2022, 00:45:38,    122,    0.0,    8.3,   0.00,   0.00, 1006.1,   77.2, -999.0
11-03-2022, 00:45:48,    156,    0.3,    8.3,   0.00,   0.00, 1006.2,   77.2, -999.0
11-03-2022, 00:45:58,    156,    0.5,    8.3,   0.00,   0.00, 1006.2,   77.2, -999.0
11-03-2022, 00:46:08,    121,    0.8,    8.2,   0.00,   0.00, 1006.2,   77.3, -999.0
11-03-2022, 00:46:18,    163,    1.8,    8.4,   0.00,   0.00, 1006.2,   77.4, -999.0
11-03-2022, 00:46:28,    114,    2.2,    8.3,   0.00,   0.00, 1006.2,   77.3, -999.0
11-03-2022, 00:46:38,    128,    1.2,    8.3,   0.00,   0.00, 1006.2,   77.4, -999.0